Skip Page Navigation
NASA JPL Caltech
NASA Logo - Jet Propulsion Laboratory + View the NASA Portal
+ Center for Near-Earth Object Studies
JPL Home Earth Solar System Stars & Galaxies Technology
JPL Solar System Dynamics
BODIES ORBITS EPHEMERIDES TOOLS PHYSICAL DATA DISCOVERY FAQ SITE MAP
JPL Small-Body Database Browser
Search: [ help ]  
452588 (2005 JM95)
Classification: Main-belt Asteroid          SPK-ID: 2452588
Ephemeris | Orbit Diagram | Orbital Elements | Mission Design | Physical Parameters | Discovery Circumstances | Close-Approach Data ]

[ show orbit diagram ]
Orbital Elements at Epoch 2459000.5 (2020-May-31.0) TDB
Reference: JPL 10 (heliocentric ecliptic J2000)
 Element Value Uncertainty (1-sigma)   Units 
e .2021622632538954 1.0553e-07  
a 2.560397643671226 3.5387e-08 au
q 2.04278186119671 2.6145e-07 au
i 18.31439369840063 1.0822e-05 deg
node 193.0438228975753 3.4113e-05 deg
peri 46.3493303536363 4.5056e-05 deg
M 209.9406677221794 3.7823e-05 deg
tp 2459624.263652111600
(2022-Feb-13.76365211)
0.00016471 TDB
period 1496.440850106103
4.10
3.1024e-05
8.494e-08
d
yr
n .2405708184018598 4.9874e-09 deg/d
Q 3.078013426145742 4.2541e-08 au
  Orbit Determination Parameters
   # obs. used (total)      60  
   data-arc span      6347 days (17.38 yr)  
   first obs. used      2001-03-19  
   last obs. used      2018-08-04  
   planetary ephem.      DE431  
   SB-pert. ephem.      SB431-N16  
   condition code      0  
   norm. resid. RMS      .67346  
   source      ORB  
   producer      Otto Matic  
   solution date      2019-Jul-14 12:51:55  

Additional Information
 Earth MOID = 1.07216 au 
 Jupiter MOID = 1.99536 au 
 T_jup = 3.337 
[ show covariance matrix ]

Ephemeris | Orbit Diagram | Orbital Elements | Mission Design | Physical Parameters | Discovery Circumstances | Close-Approach Data ]

Physical Parameter Table
Parameter Symbol Value Units Sigma Reference Notes
absolute magnitude H 16.8   n/a MPO456155  

452588 (2005 JM95)          Discovered 2005-May-08 by Mt. Lemmon Survey at Mount Lemmon
Reference: Last Updated: 2016-01-04

[ show close-approach data ]
Ephemeris | Orbit Diagram | Orbital Elements | Mission Design | Physical Parameters | Discovery Circumstances | Close-Approach Data ]
ABOUT SSD CREDITS/AWARDS PRIVACY/COPYRIGHT GLOSSARY LINKS
FirstGov 2020-Oct-29 17:58 UT
(server date/time)  
NASA Home Page
Site Manager:   Ryan S. Park
Webmaster  Alan B. Chamberlin